SKYSAT-C11

Last updated on Sun Jun 21 2026 00:02:52 GMT+0000 (Coordinated Universal Time)

1 42987U 17068A 26171.39718881 .00024827 00000+0 33189-3 0 9993 2 42987 97.4360 320.3680 0000512 98.6776 261.4537 15.58039677483749
UTC large
Height (km)
Speed (km/s)
/
Latitude / Longitude
Inclination (degrees)
Orbital Period (minutes)
Azimuth
Elevation
Range (km)
Doppler Factor

Next 0 passes for location: London (51.5072 / 0.1276)

No passes found over London.
SKYSAT-C11